Flag for Canada Weather past 2 weeks in Gatineau, Quebec, Canada

Now
75 °F

Scattered clouds.


Feels Like: 78 °F
Forecast: 56 / 79 °F
Wind: 7 mph from East

Location: Ottawa Int'L. Ont.

Current Time: Sep 4, 2015 at 1:47:27 PM

Latest Report: Sep 4, 2015 at 1:00 PM


Visibility: 15 mi

Pressure: 30.19 "Hg

Humidity: 50%

Dew point: 55 °F

Location of GatineauLocation

Historic Weather in Gatineau — Graph

°F

Gatineau temperature yesterday

Maximum temperature yesterday: 82 °F (at 2:00 PM)
Minimum temperature yesterday: 66 °F (at 2:00 AM)
Average temperature yesterday: 73 °F

Past Weeks' High & Low Weather Summary

 TemperatureHumidityPressure
High82 °F (Aug 20, 12:00 PM)100% (Aug 20, 6:55 PM)30.20 "Hg (Aug 20, 6:55 PM)
Low48 °F (Aug 28, 6:00 AM)44% (Aug 22, 5:00 PM)29.77 "Hg (Aug 20, 6:00 PM)
Average67 °F80%30.00 "Hg
* Reported Aug 20 12:00 Noon — Sep 4 12:00 Noon, Gatineau, Weather by CustomWeather, © 2015

Note: Actual official high and low records may vary slightly from our data, if they occured in-between our weather recording intervals... More about our weather records

Advertising

Gatineau weather history for previous 24 hours

 ConditionsComfort  
Time TempWeatherWind HumidityBarometerVisibility
12:00 PM
Fri, Sep 4
73 °FScattered clouds.9 mph53%30.20 "Hg15 mi
11:00 AM70 °FScattered clouds.8 mph57%30.20 "Hg15 mi
10:00 AM66 °FScattered clouds.10 mph64%30.20 "Hg15 mi
9:00 AM63 °FScattered clouds.9 mph68%30.19 "Hg15 mi
8:00 AM61 °FScattered clouds.7 mph77%30.16 "Hg15 mi
7:00 AM55 °FPassing clouds.6 mph82%30.15 "Hg15 mi
6:00 AM55 °FPassing clouds.6 mph82%30.13 "Hg15 mi
5:00 AM57 °FClear.7 mph77%30.11 "Hg15 mi
4:00 AM59 °FClear.10 mph77%30.10 "Hg15 mi
3:00 AM59 °FPassing clouds.8 mph82%30.09 "Hg15 mi
2:00 AM61 °FPassing clouds.9 mph83%30.06 "Hg15 mi
1:00 AM63 °FClear.8 mph77%30.05 "Hg15 mi
12:00 AM66 °FClear.10 mph68%30.03 "Hg15 mi
11:00 PM
Thu, Sep 3
68 °FClear.7 mph69%30.01 "Hg15 mi
10:00 PM68 °FClear.7 mph69%30.00 "Hg15 mi
9:00 PM72 °FClear.7 mph65%29.99 "Hg15 mi
8:00 PM73 °FPassing clouds.6 mph61%29.98 "Hg15 mi
7:00 PM77 °FPassing clouds.9 mph51%29.96 "Hg15 mi
6:00 PM81 °FPassing clouds.9 mph51%29.95 "Hg15 mi
5:00 PM82 °FScattered clouds.13 mph45%29.94 "Hg15 mi
4:00 PM82 °FPartly sunny.10 mph51%29.93 "Hg15 mi
3:00 PM82 °FPartly sunny.8 mph55%29.93 "Hg15 mi
2:00 PM82 °FPartly sunny.5 mph55%29.94 "Hg15 mi
1:00 PM81 °FPartly sunny.5 mph62%29.95 "Hg15 mi
Weather by CustomWeather, © 2015

See weather overviewHow to use our weather pages